OneWeb SL0422

operational
NORAD ID: 51626 Int'l Des: 2022-012 Owner: ONEWEBN Country: UK Constellation: oneweb
LEOCIRCULARPOLARONEWEB_TYPE

关于 OneWeb SL0422

正在加载描述...

实时位置

正在加载3D地球...

即将过境

高度历史

Altitude vs Time

uPlot chart will show altitude changes over time

两行轨道根数

1 51626U 22012E 25260.92029692 -.00000005 00000-0 -46076-4 0 9995
2 51626 87.9054 59.9999 0001051 83.2127 276.9124 13.17647666177952
Epoch: Sep 17, 2025 • Age: 9 hours

当前状态

高度 1196.9 km
速度 7.26 km/s
星下点 -2.26°S, 45.44°W
发射日期 Feb 10, 2022
运行时间 3.6 years
类型 internet

技术详情

分类 Payload
质量 148.00 kg
干质量 140.00 kg
总质量 148.00 kg
长度 1.30 m
直径 1.00 m
跨度 5.00 m
形状 Trapezoid+2 pan
制造商 ONEWUS
平台类型 ARROW
阶段状态 In Orbit
所有者/国家 ONEWEBN/UK

大型星座

Loading constellations...